User: anonymous   Login
Location: Unspecified
(0.0000°N, 0.0000°E)
Time: 01:53:28
(UTC+00:00)
Language:

STARLINK-32017 - Orbit

View from above orbital plane
View from above orbital plane
View from above satellite
View from above satellite

Ground track
Ground track

The orbit is defined by the following mean orbital elements,

1 60032U          26145.50511509 +.00000000 +00000-0 +17733-4 0 00003
2 60032  53.1605  78.8906 0001257  87.5430 272.5714 15.30193746    00
Epoch (UTC): 25 May 2026 12:07:21
Eccentricity: 0.0001257
inclination: 53.1605°
perigee height: 474 km
apogee height: 476 km
right ascension of ascending node: 78.8906°
argument of perigee: 87.5430°
revolutions per day: 15.30193746
mean anomaly at epoch: 272.5714°

The dashed part of the orbit path shows where the satellite is in the earth's shadow,  

DLR